NOZ602 ENGM-ENBR

Flight info

Callsign NOZ602
Flight time 0h 42m
Altitude 28000
Route ATLAP DCT AGEKU DCT PESUR
Aircraft B38M/M-SDE1FGHILORVWXY/HB1

Departure

Time 2026-04-30 04:21
Airport Oslo-Gardermoen International Airport (ENGM)

Arrival

Time 2026-04-30 05:04
Airport Bergen Airport, Flesland (ENBR)
Time Latitude Longitude Altitude Speed Heading
2026-04-30 03:50 60.19557 11.09504 679 ft 0 kts 196°
2026-04-30 04:09 60.19573 11.09514 681 ft 4 kts 199°
2026-04-30 04:10 60.19598 11.09533 677 ft 4 kts 203°
2026-04-30 04:10 60.19622 11.09557 680 ft 4 kts 211°
2026-04-30 04:10 60.19643 11.09589 677 ft 4 kts 233°
2026-04-30 04:10 60.19649 11.09628 678 ft 2 kts 286°
2026-04-30 04:11 60.19648 11.09638 684 ft 0 kts 287°
2026-04-30 04:15 60.19650 11.09625 679 ft 2 kts 286°
2026-04-30 04:15 60.19658 11.09568 684 ft 7 kts 286°
2026-04-30 04:15 60.19674 11.09456 684 ft 10 kts 286°
2026-04-30 04:16 60.19695 11.09314 678 ft 11 kts 286°
2026-04-30 04:16 60.19719 11.09150 681 ft 14 kts 286°
2026-04-30 04:16 60.19749 11.08938 681 ft 18 kts 285°
2026-04-30 04:16 60.19761 11.08688 679 ft 18 kts 230°
2026-04-30 04:17 60.19642 11.08597 680 ft 19 kts 195°
2026-04-30 04:17 60.19511 11.08521 683 ft 19 kts 196°
2026-04-30 04:17 60.19376 11.08443 679 ft 21 kts 196°
2026-04-30 04:17 60.19229 11.08358 679 ft 23 kts 196°
2026-04-30 04:18 60.19071 11.08267 681 ft 25 kts 196°
2026-04-30 04:18 60.18894 11.08165 673 ft 29 kts 196°
2026-04-30 04:18 60.18692 11.08046 670 ft 31 kts 197°
2026-04-30 04:18 60.18479 11.07930 669 ft 32 kts 194°
2026-04-30 04:19 60.18415 11.07894 669 ft 1 kts 196°
2026-04-30 04:19 60.18399 11.07885 669 ft 3 kts 196°
2026-04-30 04:19 60.18370 11.07858 666 ft 6 kts 217°
2026-04-30 04:19 60.18350 11.07765 668 ft 9 kts 270°
2026-04-30 04:20 60.18377 11.07650 667 ft 11 kts 320°
2026-04-30 04:20 60.18450 11.07557 666 ft 13 kts 325°
2026-04-30 04:20 60.18532 11.07447 665 ft 16 kts 332°
2026-04-30 04:20 60.18648 11.07461 667 ft 25 kts 16°
2026-04-30 04:21 60.19062 11.07700 674 ft 97 kts 16°
2026-04-30 04:21 60.19912 11.08190 676 ft 154 kts 15°
2026-04-30 04:21 60.21030 11.08848 1027 ft 172 kts 17°
2026-04-30 04:21 60.22203 11.09570 1710 ft 180 kts 15°
2026-04-30 04:22 60.23453 11.10278 2265 ft 193 kts 14°
2026-04-30 04:22 60.24804 11.10995 2808 ft 206 kts 13°
2026-04-30 04:22 60.26225 11.11508 3447 ft 217 kts
2026-04-30 04:22 60.27798 11.11219 3960 ft 231 kts 349°
2026-04-30 04:23 60.29404 11.10564 4695 ft 238 kts 342°
2026-04-30 04:23 60.30869 11.09110 5512 ft 238 kts 322°
2026-04-30 04:23 60.31923 11.06510 6271 ft 247 kts 296°
2026-04-30 04:23 60.32227 11.02992 6783 ft 268 kts 267°
2026-04-30 04:24 60.31640 10.99358 7508 ft 275 kts 244°
2026-04-30 04:24 60.30883 10.95855 8207 ft 276 kts 264°
2026-04-30 04:24 60.31026 10.92102 9024 ft 268 kts 288°
2026-04-30 04:24 60.31496 10.88420 9736 ft 273 kts 285°
2026-04-30 04:25 60.31866 10.84639 10499 ft 277 kts 275°
2026-04-30 04:25 60.31542 10.80676 10916 ft 300 kts 250°
2026-04-30 04:25 60.30310 10.77181 11240 ft 323 kts 223°
2026-04-30 04:25 60.28372 10.74687 11725 ft 337 kts 213°
2026-04-30 04:26 60.26356 10.72230 12428 ft 340 kts 214°
2026-04-30 04:26 60.24318 10.69707 13100 ft 346 kts 215°
2026-04-30 04:26 60.22256 10.67138 13818 ft 350 kts 215°
2026-04-30 04:26 60.20159 10.64524 14479 ft 356 kts 215°
2026-04-30 04:27 60.18220 10.61562 15137 ft 353 kts 232°
2026-04-30 04:27 60.16916 10.57442 15832 ft 349 kts 253°
2026-04-30 04:27 60.16402 10.52728 16463 ft 346 kts 270°
2026-04-30 04:27 60.16249 10.47870 17132 ft 351 kts 270°
2026-04-30 04:28 60.16110 10.42932 17815 ft 355 kts 271°
2026-04-30 04:28 60.15986 10.38011 18474 ft 359 kts 271°
2026-04-30 04:28 60.15867 10.32966 19070 ft 362 kts 271°
2026-04-30 04:28 60.15752 10.27888 19688 ft 365 kts 271°
2026-04-30 04:29 60.15637 10.22776 20281 ft 367 kts 271°
2026-04-30 04:29 60.15520 10.17620 20875 ft 370 kts 271°
2026-04-30 04:29 60.15402 10.12507 21461 ft 372 kts 271°
2026-04-30 04:29 60.15280 10.07289 22038 ft 375 kts 271°
2026-04-30 04:30 60.15155 10.02039 22601 ft 377 kts 271°
2026-04-30 04:30 60.15027 9.96776 23217 ft 378 kts 271°
2026-04-30 04:30 60.14897 9.91476 23773 ft 381 kts 270°
2026-04-30 04:30 60.14765 9.86205 24239 ft 384 kts 270°
2026-04-30 04:31 60.14640 9.80845 24691 ft 385 kts 273°
2026-04-30 04:31 60.14810 9.75482 25113 ft 385 kts 278°
2026-04-30 04:31 60.15032 9.70084 25533 ft 388 kts 278°
2026-04-30 04:31 60.15255 9.64659 25968 ft 391 kts 278°
2026-04-30 04:32 60.15479 9.59196 26395 ft 393 kts 277°
2026-04-30 04:32 60.15702 9.53689 26799 ft 396 kts 277°
2026-04-30 04:32 60.15922 9.48235 27196 ft 398 kts 277°
2026-04-30 04:32 60.16143 9.42685 27604 ft 400 kts 277°
2026-04-30 04:33 60.16364 9.37080 28101 ft 400 kts 277°
2026-04-30 04:33 60.16581 9.31487 28426 ft 402 kts 277°
2026-04-30 04:33 60.16797 9.25907 28445 ft 399 kts 277°
2026-04-30 04:34 60.17215 9.14878 28448 ft 398 kts 276°
2026-04-30 04:34 60.17628 9.03735 28458 ft 398 kts 276°
2026-04-30 04:35 60.18028 8.92678 28448 ft 398 kts 276°
2026-04-30 04:35 60.18422 8.81547 28470 ft 398 kts 276°
2026-04-30 04:36 60.18803 8.70495 28471 ft 398 kts 276°
2026-04-30 04:36 60.19178 8.59369 28460 ft 398 kts 275°
2026-04-30 04:37 60.19541 8.48327 28493 ft 398 kts 275°
2026-04-30 04:37 60.19898 8.37210 28480 ft 398 kts 275°
2026-04-30 04:38 60.20242 8.26158 28497 ft 397 kts 275°
2026-04-30 04:38 60.20577 8.15059 28503 ft 393 kts 275°
2026-04-30 04:38 60.20737 8.09665 28509 ft 377 kts 275°
2026-04-30 04:39 60.20888 8.04485 28514 ft 368 kts 275°
2026-04-30 04:39 60.21179 7.94346 28511 ft 364 kts 275°
2026-04-30 04:40 60.21463 7.84167 28505 ft 364 kts 275°
2026-04-30 04:40 60.21740 7.73986 28515 ft 364 kts 275°
2026-04-30 04:41 60.22007 7.63839 28381 ft 359 kts 274°
2026-04-30 04:41 60.22135 7.58881 27833 ft 360 kts 274°
2026-04-30 04:41 60.22263 7.53856 27455 ft 357 kts 274°
2026-04-30 04:41 60.22388 7.48866 27007 ft 355 kts 274°
2026-04-30 04:42 60.22510 7.43903 26624 ft 352 kts 274°
2026-04-30 04:42 60.22628 7.39059 26227 ft 351 kts 274°
2026-04-30 04:42 60.22745 7.34154 25845 ft 348 kts 274°
2026-04-30 04:42 60.22859 7.29305 25477 ft 346 kts 274°
2026-04-30 04:43 60.22971 7.24478 25094 ft 344 kts 274°
2026-04-30 04:43 60.23081 7.19669 24723 ft 342 kts 274°
2026-04-30 04:43 60.23187 7.14953 24366 ft 340 kts 274°
2026-04-30 04:43 60.23294 7.10141 23984 ft 339 kts 274°
2026-04-30 04:44 60.23395 7.05474 23567 ft 337 kts 274°
2026-04-30 04:44 60.23495 7.00772 23145 ft 335 kts 274°
2026-04-30 04:44 60.23594 6.96077 22728 ft 334 kts 274°
2026-04-30 04:44 60.23691 6.91410 22230 ft 335 kts 274°
2026-04-30 04:45 60.23787 6.86673 21581 ft 342 kts 274°
2026-04-30 04:45 60.23882 6.81902 20976 ft 347 kts 274°
2026-04-30 04:45 60.23978 6.77017 20365 ft 352 kts 273°
2026-04-30 04:45 60.24075 6.72067 19761 ft 356 kts 273°
2026-04-30 04:46 60.24170 6.67056 19154 ft 360 kts 272°
2026-04-30 04:46 60.24267 6.61976 18539 ft 365 kts 273°
2026-04-30 04:46 60.24732 6.56959 17870 ft 367 kts 291°
2026-04-30 04:46 60.25854 6.52321 17231 ft 369 kts 296°
2026-04-30 04:47 60.26987 6.47685 16608 ft 371 kts 295°
2026-04-30 04:47 60.28132 6.42996 15994 ft 373 kts 295°
2026-04-30 04:47 60.29255 6.38388 15426 ft 367 kts 295°
2026-04-30 04:47 60.30371 6.33802 14832 ft 360 kts 295°
2026-04-30 04:48 60.31465 6.29297 14259 ft 355 kts 295°
2026-04-30 04:48 60.32539 6.24863 13682 ft 347 kts 295°
2026-04-30 04:48 60.33586 6.20535 13189 ft 339 kts 295°
2026-04-30 04:48 60.34608 6.16301 12693 ft 331 kts 294°
2026-04-30 04:49 60.35594 6.12212 12220 ft 323 kts 294°
2026-04-30 04:49 60.36567 6.08162 11740 ft 316 kts 294°
2026-04-30 04:49 60.37514 6.04215 11271 ft 308 kts 294°
2026-04-30 04:49 60.38439 6.00356 10821 ft 300 kts 294°
2026-04-30 04:50 60.39336 5.96601 10369 ft 293 kts 294°
2026-04-30 04:50 60.40205 5.92966 9878 ft 287 kts 294°
2026-04-30 04:50 60.41064 5.89360 9369 ft 282 kts 294°
2026-04-30 04:50 60.41907 5.85819 8907 ft 277 kts 294°
2026-04-30 04:51 60.42737 5.82324 8564 ft 271 kts 293°
2026-04-30 04:51 60.43548 5.78908 8515 ft 268 kts 293°
2026-04-30 04:51 60.44082 5.76650 8503 ft 268 kts 293°
2026-04-30 04:51 60.45155 5.72117 8490 ft 268 kts 293°
2026-04-30 04:52 60.45961 5.68698 8481 ft 268 kts 293°
2026-04-30 04:52 60.46767 5.65291 8484 ft 268 kts 294°
2026-04-30 04:52 60.47447 5.63188 8468 ft 271 kts 311°
2026-04-30 04:52 60.49066 5.61227 8464 ft 278 kts 343°
2026-04-30 04:53 60.51021 5.61083 8491 ft 285 kts
2026-04-30 04:53 60.53008 5.61201 8477 ft 284 kts 353°
2026-04-30 04:53 60.54890 5.60277 8497 ft 278 kts 336°
2026-04-30 04:53 60.56728 5.58988 8477 ft 279 kts 338°
2026-04-30 04:54 60.58564 5.57670 8466 ft 278 kts 332°
2026-04-30 04:54 60.60105 5.55508 8485 ft 272 kts 316°
2026-04-30 04:54 60.61574 5.53062 8493 ft 274 kts 318°
2026-04-30 04:54 60.63046 5.50598 8481 ft 272 kts 313°
2026-04-30 04:55 60.64140 5.47523 8494 ft 268 kts 297°
2026-04-30 04:55 60.65093 5.44251 8511 ft 269 kts 298°
2026-04-30 04:55 60.66040 5.40990 8342 ft 265 kts 295°
2026-04-30 04:55 60.66550 5.37424 7972 ft 261 kts 276°
2026-04-30 04:56 60.66818 5.33765 7603 ft 261 kts 273°
2026-04-30 04:56 60.66492 5.30220 7268 ft 256 kts 241°
2026-04-30 04:56 60.65265 5.27763 7139 ft 250 kts 209°
2026-04-30 04:56 60.63614 5.26942 7046 ft 242 kts 183°
2026-04-30 04:57 60.61957 5.27104 6720 ft 236 kts 181°
2026-04-30 04:57 60.60312 5.27230 6266 ft 235 kts 181°
2026-04-30 04:57 60.58686 5.27362 5905 ft 230 kts 180°
2026-04-30 04:57 60.57116 5.27494 5658 ft 220 kts 180°
2026-04-30 04:58 60.55575 5.27628 5182 ft 223 kts 180°
2026-04-30 04:58 60.54050 5.27761 4808 ft 221 kts 179°
2026-04-30 04:58 60.52517 5.27882 4385 ft 219 kts 182°
2026-04-30 04:58 60.51086 5.27077 3968 ft 214 kts 215°
2026-04-30 04:59 60.50074 5.24897 3534 ft 212 kts 239°
2026-04-30 04:59 60.49338 5.22414 3437 ft 195 kts 238°
2026-04-30 04:59 60.48666 5.20122 3338 ft 186 kts 239°
2026-04-30 04:59 60.47995 5.17938 3205 ft 184 kts 228°
2026-04-30 05:00 60.46928 5.16645 3059 ft 181 kts 192°
2026-04-30 05:00 60.45666 5.16417 3100 ft 184 kts 178°
2026-04-30 05:00 60.44385 5.16695 3029 ft 186 kts 171°
2026-04-30 05:00 60.43129 5.17142 2809 ft 177 kts 170°
2026-04-30 05:01 60.41965 5.17547 2588 ft 163 kts 171°
2026-04-30 05:01 60.40905 5.17909 2389 ft 151 kts 171°
2026-04-30 05:01 60.39857 5.18266 2161 ft 150 kts 171°
2026-04-30 05:01 60.38842 5.18609 1941 ft 149 kts 170°
2026-04-30 05:02 60.37818 5.18955 1741 ft 149 kts 170°
2026-04-30 05:02 60.36798 5.19301 1521 ft 148 kts 170°
2026-04-30 05:02 60.35780 5.19644 1322 ft 149 kts 170°
2026-04-30 05:02 60.34754 5.19994 1117 ft 150 kts 170°
2026-04-30 05:03 60.33737 5.20336 900 ft 149 kts 171°
2026-04-30 05:03 60.32719 5.20680 691 ft 147 kts 171°
2026-04-30 05:03 60.31709 5.21016 479 ft 146 kts 171°
2026-04-30 05:03 60.30706 5.21358 291 ft 145 kts 171°
2026-04-30 05:04 60.29728 5.21678 149 ft 131 kts 170°
2026-04-30 05:04 60.29072 5.21903 164 ft 69 kts 171°
2026-04-30 05:04 60.28748 5.22014 165 ft 39 kts 171°
2026-04-30 05:04 60.28670 5.22187 164 ft 5 kts 82°
2026-04-30 05:05 60.28673 5.22221 166 ft 1 kts 79°
2026-04-30 05:05 60.28673 5.22223 166 ft 0 kts 79°
2026-04-30 05:06 60.28676 5.22251 167 ft 5 kts 79°
2026-04-30 05:06 60.28683 5.22329 169 ft 5 kts 81°
2026-04-30 05:06 60.28687 5.22378 171 ft 2 kts 81°
2026-04-30 05:07 60.28695 5.22430 173 ft 7 kts 68°
2026-04-30 05:07 60.28715 5.22563 176 ft 12 kts 81°
2026-04-30 05:07 60.28725 5.22679 177 ft 8 kts 68°
2026-04-30 05:07 60.28767 5.22772 177 ft 11 kts 58°
2026-04-30 05:08 60.28780 5.22882 178 ft 2 kts 80°
2026-04-30 05:08 60.28781 5.22891 178 ft 0 kts 80°